YAOGAN 10

导读

YAOGAN 10即遥感十号卫星,是中国自主研制的遥感卫星,于北京时间2010年8月9日发射。该卫星由中国航天科技集团公司上海航天技术研究院为主研制,采用长征四号丙运载火箭执行发射任务,是长征系列运载火箭的第127次飞行。卫星主要服务于科学试验、国土资源普查、农作物估产及防灾减灾等领域,可为国民经济发展提供有力的数据支撑。

基本信息
目录编号:
36834
目录名称:
YAOGAN 10
国际标识:
2010-038A
轨道中心:
EARTH
卫星名称:
YAOGAN 10
卫星全名:
--
卫星状态:
在轨 (已飞行5877 天)
发射日期:
2010-08-09 UTC
国别 :
中国 (CN)
星等 :
--
轨道信息
数据来源 国际轨道数据 AOE轨道数据
星历时间 2026-09-11T07:18:58+0800
6小时前
查看轨道信息
2026-09-10T21:00:00+0800
16小时前
查看轨道信息
半长轴 6989.94km 6989.934km
偏心率 0.0001476 0.0001343
轨道倾角 97.896° 97.896°
近地点辐角 89.162° 93.544°
升交点赤经 276.694° 276.269°
平近点角 1.536° 219.794°
近地点 610.771km 610.858km
远地点 612.835km 612.736km
周期 96.933分钟 96.932分钟
每日圈数 14.855685 14.855702
详细信息
使用方式:
暂无
2D轨道图
3D轨道图
轨道高度分析图
轨道倾角分析图
轨道综合分析图
查看轨道综合分析图
与全量物体交会距离演化趋势
与全量物体交会风险概率演化趋势